AirNav   Everest Fuels
 
 456 users online  

52NC Epley Airport
Jacksonville, North Carolina, USA

GOING TO JACKSONVILLE?


FAA INFORMATION EFFECTIVE 21 MAY 2020

Location

FAA Identifier: 52NC
Lat/Long: 34-50-40.4300N 077-15-58.3200W
34-50.673833N 077-15.972000W
34.8445639,-77.2662000
(estimated)
Elevation: 43 ft. / 13 m (estimated)
Variation: 09W (2000)
From city: 10 miles NE of JACKSONVILLE, NC
Time zone: UTC -4 (UTC -5 during Standard Time)
Zip code: 28555

Airport Operations

Airport use: Private use. Permission required prior to landing
Activation date: 05/2000
Control tower: no
ARTCC: WASHINGTON CENTER
FSS: RALEIGH FLIGHT SERVICE STATION
Attendance: UNATNDD
Wind indicator: yes
Segmented circle: no

Airport Communications

WX ASOS at NCA (12 nm SW): 288.325
WX AWOS-3PT at OAJ (17 nm W): PHONE 910-324-5233
WX ASOS at EWN (18 nm NE): 118.525 (252-514-2086)

Nearby radio navigation aids

VOR radial/distance  VOR name  Freq  Var
EWNr226/17.5NEW BERN VOR/DME113.6008W
ISOr161/34.7KINSTON VORTAC109.6005W

 
NDB name  Hdg/Dist  Freq  Var  ID
KATFI229/14.036208WEW . .--
DIXON037/19.019808WDIW -.. .. .--

Airport Services

Runway Information

Runway 7/25

Dimensions: 2400 x 75 ft. / 732 x 23 m
Surface: turf
RUNWAY 7  RUNWAY 25
Traffic pattern: rightleft
Obstructions: none50 ft. trees, 500 ft. from runway

Airport Ownership and Management from official FAA records

Ownership: Privately-owned
Owner: STEVE EPLEY
265 DEPPE ROAD
MAYSVILLE, NC 28555
Phone 910-330-6745
Manager: LINDA EPLEY
265 DEPPE ROAD
MAYSVILLE, NC 28555
Phone 910-548-8942

Airport Operational Statistics

Aircraft based on the field: 3
Single engine airplanes: 3
    

Additional Remarks

FOR CD CTC WASHINGTON ARTCC AT 703-771-3587.

Instrument Procedures

There are no published instrument procedures at 52NC.

Some nearby airports with instrument procedures:

KNCA - New River Marine Corps Air Station (H) (McCutcheon Field) (12 nm SW)
KOAJ - Albert J Ellis Airport (17 nm W)
KEWN - Coastal Carolina Regional Airport (18 nm NE)
KNKT - Cherry Point Marine Corps Air Station (Cunningham Field) (19 nm E)
KMRH - Michael J Smith Field Airport (31 nm E)
 
Loc | Ops | Rwys | IFR | FBO | Links
Com | Nav | Svcs | Stats | Notes
Area around 52NC (Epley Airport)
 
Road maps at: MapQuest Bing Google
 
Aerial photo
No photo
 
Sectional chart

 
Airport distance calculator
Flying to Epley Airport? Find the distance to fly.

From to 52NC

Sunrise and sunset
Times for 31-May-2020
 Local
(UTC-4)
 Zulu
(UTC)
Morning civil twilight05:2909:29
Sunrise05:5809:58
Sunset20:1600:16
Evening civil twilight20:4500:45

Current date and time
Zulu (UTC)  31-May-2020 05:55:32
Local (UTC-4)  31-May-2020 01:55:32
 
METAR
KNCA 
12nm SW 
310538Z AUTO 32009KT 10SM FEW010 SCT022 SCT030 23/21 A2993 RMK AO2 T02280206 $
KQAJ 
16nm SE 
310458Z 34018G22KT 9999 FEW150 SCT250 33/M03 A2976 RMK SLPNO ALSTG ESTMD WND DATA ESTMD $
KNJM 
16nm SE 
310527Z AUTO VRB03KT 10SM SCT008 SCT017 BKN027 A2995 RMK AO2 TSNO $
KEWN 
17nm NE 
310454Z AUTO 28005KT 10SM CLR 22/19 A2995 RMK AO2 SLP140 T02220194 402940222
KOAJ 
17nm W 
310518Z AUTO VRB04KT 10SM -RA FEW029 BKN060 OVC100 21/19 A2996 RMK AO2 RAB0459 P0000
KNKT 
20nm E 
310450Z 29004KT 10SM SCT006 BKN017 OVC022 24/22 A2995 RMK AO2 SLP138 T02440217 402780233
TAF
KNCA 
12nm SW 
3103/0103 VRB06KT 9999 VCTS SCT030 BKN120 QNH2989INS BECMG 3109/0109 01009KT NSW BKN035 QNH2992INS FM311300 03008G18KT 9999 BKN050 QNH3000INS T25/3118Z T17/0103Z
KEWN 
17nm NE 
301732Z 3018/3118 22005KT P6SM VCTS SCT025 OVC035CB FM310300 22005KT P6SM BKN120 FM310700 30004KT P6SM SCT015 FM311200 01008G21KT P6SM SCT090
KOAJ 
17nm W 
301732Z 3018/3118 23005KT P6SM VCTS SCT020 BKN035CB FM310300 23004KT P6SM SCT015 BKN090 FM311300 02008G13KT P6SM BKN060 AMD LTD TO CLD VIS AND WIND
KNKT 
20nm E 
3103/0103 VRB06KT 9999 VCTS SCT030 BKN120 QNH2992INS BECMG 3109/0109 01009KT NSW BKN035 QNH2995INS FM311300 03008G18KT 9999 BKN050 QNH3003INS T25/3118Z T17/0103Z
NOTAMs
Click for the latest NOTAMs
NOTAMs are issued by the DoD/FAA and will open in a separate window not controlled by AirNav.

 

 
 

Would you like to see your business listed on this page?

 If your business provides an interesting product or service to pilots, flight crews, aircraft, or users of the Epley Airport, you should consider listing it here.  To start the listing process, click on the button below
 
Add a business
 

Other Pages about Epley Airport

Update a link
 
Copyright © AirNav, LLC. All rights reserved. Privacy Policy  Contact